Location: B
(0.0000°N, 0.0000°E)
Time: 03:51:42
(UTC+01:00)

Cosmos 1025 Rocket - Visible Passes

Search period start: 22 November 2014 00:00
Search period end: 02 December 2014 00:00
Orbit: 596 x 620 km, 82.5° (Epoch: 21 November)

Date Brightness Start Highest point End Pass type
(mag) Time Alt. Az. Time Alt. Az. Time Alt. Az.
22 Nov 4.9 19:46:23 10° SSW 19:50:17 32° W 19:54:12 10° NNW visible
23 Nov 6.2 06:17:57 10° ENE 06:19:50 13° E 06:21:43 10° ESE visible
23 Nov 6.0 20:01:25 10° SW 20:04:07 16° W 20:06:49 10° NW visible
27 Nov 5.7 19:18:36 10° SW 19:22:05 23° W 19:25:34 10° NNW visible
28 Nov 5.9 05:48:43 10° NE 05:51:37 18° E 05:54:30 10° SE visible
28 Nov 6.3 19:34:31 10° WSW 19:35:55 11° W 19:37:19 10° WNW visible
29 Nov 4.7 06:01:31 10° NNE 06:05:26 36° E 06:09:21 10° SSE visible
30 Nov 3.2 06:15:00 10° N 06:19:15 79° E 06:23:31 10° S visible
